Flag Weather past 2 weeks in Lanchow, Gansu, China

Now
28 °F

Ice fog.


Feels Like: 25 °F
Forecast: 22 / 36 °F
Wind: 3 mph from North

Location: Lanzhou / Zhongchuan

Current Time: Nov 28, 2014 at 11:57:30 PM

Latest Report: Nov 28, 2014 at 11:00 PM


Visibility: 2 mi

Pressure: 29.95 "Hg

Humidity: 93%

Dew point: 27 °F

Location of LanchowLocation

Historic Weather in Lanchow — Graph

°F

Lanchow temperature yesterday

Maximum temperature yesterday: 32 °F (at 5:00 PM)
Minimum temperature yesterday: 25 °F (at 11:00 PM)
Average temperature yesterday: 29 °F

Past Weeks' High & Low Weather Summary

 TemperatureHumidityPressure
High50 °F (Nov 25, 3:00 PM)100% (Nov 25, 5:00 AM)30.39 "Hg (Nov 25, 5:00 AM)
Low16 °F (Nov 28, 7:00 AM)30% (Nov 20, 12:00 PM)29.77 "Hg (Nov 28, 4:00 PM)
Average30 °F70%30.15 "Hg
* Reported Nov 13 10:00 PM — Nov 28 10:00 PM, Lanchow, Weather by CustomWeather, © 2014

Note: Actual official high and low records may vary slightly from our data, if they occured in-between our weather recording intervals... More about our weather records

Advertising

Lanchow weather history for previous 24 hours

 ConditionsComfort  
Time TempWeatherWind HumidityBarometerVisibility
10:00 PM
Nov 28
28 °FIce fog.3 mph93%29.95 "Hg1 mi
9:00 PM28 °FIce fog.1 mph86%29.92 "Hg2 mi
8:00 PM28 °FIce fog.No wind93%29.89 "Hg2 mi
7:00 PM30 °FIce fog.No wind80%29.86 "Hg2 mi
6:00 PM34 °FClear.No wind65%29.83 "Hg4 mi
5:00 PM37 °FClear.3 mph56%29.77 "Hg4 mi
4:00 PM39 °FClear.3 mph52%29.77 "Hg4 mi
3:00 PM39 °FClear.1 mph48%29.80 "Hg5 mi
2:00 PM37 °FClear.6 mph56%29.80 "Hg4 mi
1:00 PM36 °FClear.8 mph60%29.83 "Hg4 mi
12:00 PM32 °FClear.6 mph75%29.89 "Hg4 mi
11:00 AM27 °FIce fog.6 mph93%29.92 "Hg2 mi
10:00 AM23 °FSnow flurries. Ice fog.1 mph100%29.95 "Hg1 mi
9:00 AM23 °FIce fog.1 mph93%29.95 "Hg1 mi
8:00 AM21 °FIce fog.6 mph100%29.95 "Hg1 mi
7:00 AM16 °FIce fog.3 mph93%29.95 "Hg3 mi
6:00 AM18 °FClear.1 mph86%29.95 "Hg4 mi
5:00 AM18 °FClear.No wind93%29.98 "Hg4 mi
4:00 AM19 °FClear.No wind93%30.01 "Hg4 mi
3:00 AM19 °FClear.No wind93%30.01 "Hg4 mi
2:00 AM21 °FClear.1 mph93%30.04 "Hg5 mi
1:00 AM21 °FPassing clouds.No wind93%30.04 "HgN/A
12:00 AM23 °FPassing clouds.1 mph93%30.07 "HgN/A
11:00 PM
Nov 27
25 °FPassing clouds.1 mph93%30.09 "HgN/A
Weather by CustomWeather, © 2014

See weather overviewHow to use our weather pages